Regional Weather Roundup
Issued by NWS

Home | Current Version | Previous Version | Graphics & Text | Print | Product List | Glossary On
Versions: 1 2 3 4 5 6 7 8 9 10 11 12 13 14 15 16 17 18 19 20 21 22 23 24 25 26 27 28 29 30 31 32 33 34 35 36 37 38 39 40 41 42 43 44 45 46 47 48 49 50
000
ASUS43 KMKX 261600
RWRWI

WISCONSIN REGIONAL WEATHER ROUNDUP
NATIONAL WEATHER SERVICE MILWAUKEE/SULLIVAN WI
1100 AM CDT FRI AUG 26 2016

NOTE: "FAIR" INDICATES FEW OR NO CLOUDS BELOW 12,000 FEET WITH NO
SIGNIFICANT WEATHER AND/OR OBSTRUCTIONS TO VISIBILITY.

WIZ001-002-006>008-014>016-023>028-261700-
NORTHWEST WISCONSIN

CITY           SKY/WX    TMP DP  RH WIND       PRES   REMARKS
SUPERIOR ARPT  SUNNY     68  56  65 SW3       30.17R
ASHLAND        SUNNY     68  52  56 VRB6      30.17S
HAYWARD        SUNNY     66  52  60 CALM      30.18F
SIREN          SUNNY     66  51  58 CALM      30.18S
CUMBERLAND     SUNNY     64  48  55 CALM      30.19S
RICE LAKE      SUNNY     65  53  64 CALM      30.20F
CHETEK         NOT AVBL
LADYSMITH      MOSUNNY   66  54  64 NW3       30.20S
EAU CLAIRE     NOT AVBL
MENOMONIE      SUNNY     68  54  61 SW5       30.20S
NEW RICHMOND   SUNNY     67  54  63 CALM      30.20R
OSCEOLA        SUNNY     66  58  76 CALM      30.22R
$$

WIZ003>005-009-010-017-018-261700-
NORTH CENTRAL WISCONSIN

CITY           SKY/WX    TMP DP  RH WIND       PRES   REMARKS
MANITOWISH WTR NOT AVBL
ARBOR VITAE    MOSUNNY   64  55  72 NW6       30.18S
WOODRUFF       MOSUNNY   64  55  72 NW6       30.18S
RHINELANDER    MOSUNNY   64  55  72 NW5       30.18F
EAGLE RIVER    PTSUNNY   61  50  67 NW6G16    30.17S
LAND O LAKES   PTSUNNY   63  53  69 NW6       30.17S
PHILLIPS       MOSUNNY   63  52  68 CALM      30.18S
TOMAHAWK       MOSUNNY   64  52  67 NW8       30.19S
MEDFORD        MOSUNNY   64  54  71 NW5       30.19S
MERRILL        MOSUNNY   66  54  64 NW5       30.19S
$$

WIZ029-030-035-036-043>047-261700-
CENTRAL WISCONSIN

CITY           SKY/WX    TMP DP  RH WIND       PRES   REMARKS
WAUSAU         SUNNY     66  54  65 NW7       30.17S
MOSINEE        MOSUNNY   66  55  68 NW6       30.20S
MARSHFIELD     SUNNY     68  54  60 NW7       30.19S
STEVENS POINT  MOSUNNY   66  52  61 W6        30.19S
WAUPACA        CLOUDY    71  56  60 W7        30.18F
WAUTOMA        PTSUNNY   68  57  68 VRB3      30.19F
WISC RAPIDS    MOSUNNY   68  56  65 W6        30.20F
CAMP DOUGLAS   NOT AVBL
$$

WIZ011>013-019>022-031-037>040-048>050-261700-
NORTHEAST WISCONSIN

CITY           SKY/WX    TMP DP  RH WIND       PRES   REMARKS
ANTIGO         SUNNY     64  54  69 CALM      30.18F
SHAWANO        SUNNY     70  56  60 W10       30.17S
OCONTO         NOT AVBL
STURGEON BAY   SUNNY     67  56  67 NW8       30.16S
GREEN BAY      MOSUNNY   69  59  70 W7        30.16F
MANITOWOC      NOT AVBL
APPLETON       PTSUNNY   66  54  63 W7        30.17S
CLINTONVILLE   MOSUNNY   68  54  60 W8        30.17S
OSHKOSH        CLOUDY    68  56  65 W9        30.17F
$$

WIZ032>034-041-042-053>061-261700-
SOUTHWEST WISCONSIN

CITY           SKY/WX    TMP DP  RH WIND       PRES   REMARKS
LA CROSSE      CLOUDY    69  58  67 CALM      30.19F
SPARTA         PTSUNNY   64  58  80 CALM      30.21S
VIROQUA        CLOUDY    65  57  76 CALM      30.21F
BOSCOBEL       CLOUDY    71  62  73 NW3       30.19F
PRAIRIE DU CHI CLOUDY    66  57  71 NW3       30.19S
PLATTEVILLE    CLOUDY    68  62  82 CALM      30.20S
$$

WIZ056-057-062-063-064-067-068-261700-
SOUTH CENTRAL WISCONSIN

CITY           SKY/WX    TMP DP  RH WIND       PRES   REMARKS
REEDSBURG      NOT AVBL
BARABOO/DELLS  PTSUNNY   67  57  70 NW3       30.20F
LONE ROCK      NOT AVBL
MINERAL POINT  CLOUDY    70  61  73 CALM      30.20F
MADISON        CLOUDY    69  58  67 NW3       30.19S
MIDDLETON      CLOUDY    68  59  73 CALM      30.20F
WATERTOWN      PTSUNNY   69  58  69 N5        30.20R
MONROE         CLOUDY    70  54  56 N5        30.19F
JANESVILLE     PTSUNNY   72  57  60 NE3       30.18F
$$

WIZ051-052-058>065-066-070>072-261700-
SOUTHEAST WISCONSIN

CITY           SKY/WX    TMP DP  RH WIND       PRES   REMARKS
MILWAUKEE      PTSUNNY   74  53  48 VRB6      30.18S
WAUKESHA       SUNNY     70  55  60 N3        30.20F
MILWAUKEE/TIMM SUNNY     72  52  49 W5        30.20S
RACINE         SUNNY     75  56  51 VRB3      30.20S
BURLINGTON     MOSUNNY   71  54  54 NW5       30.19S
KENOSHA        CLOUDY    75  60  59 N3        30.19F
FOND DU LAC    CLOUDY    70  57  63 W7        30.18F
SHEBOYGAN      MOSUNNY   71  57  61 NW8       30.17S
WEST BEND      MOSUNNY   70  54  56 NW8       30.19S
JUNEAU         CLOUDY    66  58  74 CALM      30.21S
$$

LSZ147-162-261700-
LAKE SUPERIOR

STATION/POSITION TIME  TEMP    WIND        PRES    WAVE
                       AIR SEA DIR/SP/G            HT/PER
                 (UTC) (F)     (DEG/KT/KT) (MB)    (FT/S)
W MID LAKE BUOY  1450   61 66  340/  8/ 10 1020.2R   2/ 4
DEVILS ISLAND    1500   61     310/  4/  6 1021.6R
PORT WING        1500   64     280/  3/  5 1021.7R
SAXON HARBOR     1500   64     320/ 11/ 13 1021.7
$$

LMZ867-665-643>646-261700-
LAKE MICHIGAN

STATION/POSITION TIME  TEMP    WIND        PRES    WAVE
                       AIR SEA DIR/SP/G            HT/PER
                 (UTC) (F)     (DEG/KT/KT) (MB)    (FT/S)
CHAMBERS ISLAND  1500   67     250/  5/  8 1020.7R
S GREEN BAY BUOY 1500   65 72  260/  6/  8 1020.7R
N MID LAKE BUOY  1450   64 70  260/ 10/ 14 1019.5R   1/ 4
NORTHPORT PIER   1500   67     310/  4/  9 1020.3R
SISTER BAY       1507   69     330/  8/  9   N/A
KEWAUNEE LAKESHO 1500   67     290/  5/  8 1020.8R
SHEBOYGAN LAKESH 1500   67     290/  6/  8 1021.3R
PORT WASHINGTON  1500   72     300/  5/  8 1022.7R
ATWATER BUOY     1500   62 49   30/  6/  6   N/A
MILWAUKEE LAKESH 1510   66      30/  2/  4   N/A
S MID LAKE BUOY  1450   71 74  350/  6/ 10 1021.3R   1/ 4
KENOSHA   LAKESH 1500   69      CALM  /  1 1022.0R
$$

TC  - TEMPERATURE IN CELSIUS
VSB - VISIBILITY IN STATUTE MILES
WCI - WIND CHILL INDEX
HX  - HEAT INDEX





USA.gov is the U.S. government's official web portal to all federal, state and local government web resources and services.